[Iaude] MPEC R146: 2023 RE5 [a=1.67,e=0.53,i=6.2,H=27.3]

mpec at marsden.cfa.harvard.edu mpec at marsden.cfa.harvard.edu
Mon Sep 11 20:21:12 EDT 2023


M.P.E.C. 2023-R146                           Issued 2023 September 12, 00:19 UT

     The Minor Planet Electronic Circulars contain information on unusual
         minor planets, routine data on comets and natural satellites,
         and occasional editorial announcements.  They are published
    on behalf of Division F of the International Astronomical Union by the
          Minor Planet Center, Smithsonian Astrophysical Observatory,
                          Cambridge, MA 02138, U.S.A.
			  
             Prepared using the Tamkin Foundation Computer Network

                              MPC at CFA.HARVARD.EDU
            URL https://www.minorplanetcenter.net/    ISSN 1523-6714

                                    2023 RE5                                    


Observations:
     K23R05E KC2023 09 05.40254022 41 10.137+04 03 59.90         22.17GVER146F51
     K23R05E*KB2023 09 10.94079 23 06 49.63 +01 56 49.2          20.3 GXER146K19
     K23R05E KB2023 09 10.94450 23 06 51.77 +01 56 37.0                XER146K19
     K23R05E KB2023 09 10.94818 23 06 53.95 +01 56 24.9          20.7 GXER146K19
     K23R05E 1C2023 09 10.98238 23 07 13.33 +01 53 56.9          19.8 VXER146033
     K23R05E 1C2023 09 10.98330 23 07 13.90 +01 53 53.6          19.9 VXER146033
     K23R05E 1C2023 09 10.98422 23 07 14.47 +01 53 50.3          19.5 VXER146033
     K23R05E IC2023 09 11.00770123 07 28.21 +01 52 46.1          20.6 GVER146L01
     K23R05E KC2023 09 11.00938423 07 29.23 +01 52 39.6          20.6 GVER146L01
     K23R05E KC2023 09 11.01106723 07 30.27 +01 52 33.4          20.5 GVER146L01
     K23R05E KC2023 09 11.01275023 07 31.34 +01 52 27.2          20.2 GVER146L01
     K23R05E KC2023 09 11.22297623 10 15.37 +01 39 20.4          20.1 VuER146H21
     K23R05E KC2023 09 11.22577223 10 17.31 +01 39 08.7          20.2 VuER146H21
     K23R05E KC2023 09 11.22856823 10 19.24 +01 38 57.2          20.1 VuER146H21
     K23R05E KC2023 09 11.23136323 10 21.17 +01 38 45.8          20.2 VuER146H21
     K23R05E 1C2023 09 11.82716323 20 01.380+00 48 53.80               VER146246
     K23R05E 1C2023 09 11.82801723 20 02.280+00 48 48.40               VER146246
     K23R05E 1C2023 09 11.82830123 20 02.600+00 48 46.90               VER146246
     K23R05E 1C2023 09 11.82887023 20 03.190+00 48 43.10               VER146246
     K23R05E 1C2023 09 11.83026523 20 04.660+00 48 35.30               VER146246
     K23R05E 1C2023 09 11.83052623 20 04.950+00 48 33.80               VER146246
     K23R05E 1C2023 09 11.83104823 20 05.520+00 48 30.70               VER146246
     K23R05E 1C2023 09 11.83157123 20 06.120+00 48 28.10               VER146246
     K23R05E KC2023 09 11.85323 23 20 28.31 +00 46 15.7          19.8 GXER146G02
     K23R05E KC2023 09 11.85764 23 20 33.08 +00 45 49.2          19.5 GXER146G02
     K23R05E KC2023 09 11.86206 23 20 37.88 +00 45 22.5          19.7 GXER146G02
     K23R05E 1C2023 09 11.86554 23 20 43.08 +00 44 53.5          19.9 VXER146033
     K23R05E 1C2023 09 11.86583 23 20 43.38 +00 44 52.1          19.7 VXER146033
     K23R05E 1C2023 09 11.86611 23 20 43.70 +00 44 50.3          19.6 VXER146033
     K23R05E 1C2023 09 11.86645 23 20 44.07 +00 44 48.1          19.8 VXER146033
     K23R05E KC2023 09 11.87398423 20 53.85 +00 44 33.8          19.4 GVER146104
     K23R05E KC2023 09 11.87706023 20 55.29 +00 43 44.0          19.2 GVER146G34
     K23R05E KC2023 09 11.87807623 20 58.33 +00 44 09.0          19.0 GVER146104
     K23R05E KC2023 09 11.88822023 21 07.48 +00 42 34.2          19.0 GVER146G34
     K23R05E KC2023 09 11.89752023 21 17.78 +00 41 36.5          18.7 GVER146G34
     K23R05E KC2023 09 11.90241 23 21 24.20 +00 41 56.8          19.5 GVER146C82
     K23R05E IC2023 09 11.90727723 21 29.16 +00 40 59.6                XER146595
     K23R05E KC2023 09 11.91160023 21 33.93 +00 40 32.3          19.0 GXER146595
     K23R05E KC2023 09 11.91292 23 21 35.63 +00 40 49.9          19.2 GVER146C82
     K23R05E KC2023 09 11.91593123 21 38.70 +00 40 04.7          19.6 GXER146595
     K23R05E 1C2023 09 11.91825 23 21 33.17 +00 39 54.7          19.3 GVER146C40
     K23R05E 1C2023 09 11.93033 23 21 46.55 +00 38 38.2          19.1 GVER146C40
     K23R05E 1C2023 09 11.94230 23 21 59.89 +00 37 21.3          18.8 GVER146C40
     K23R05E KC2023 09 11.94981 23 22 17.43 +00 36 38.6          19.5 GXER146K83
     K23R05E KC2023 09 11.95147 23 22 19.32 +00 36 27.9          18.7 GXER146K83
     K23R05E KC2023 09 11.95313 23 22 21.19 +00 36 17.0          19.1 GXER146K83

Observer details:
033 Karl Schwarzschild Observatory, Tautenburg.  Observers S. Melnikov, C.
    Hoegner, F. Ludwig, M. Hartmann, B. Stecklum.  Measurer B. Stecklum.
    1.34-m f/3 Schmidt + CCD.
104 San Marcello Pistoiese.  Observers P. Bacci, M. Maestripieri.  Measurers
    P. Bacci, L. Tesi, G. Fagioli.  0.60-m F4 Reflector + CCD.
246 Klet Observatory-KLENOT.  Observers M. Tichy, J. Ticha, M. Janda, M.
    Honkova.  Measurer M. Tichy.  1.06-m f/2.7 Reflector + 2048x2048 CCD.
595 Farra d'Isonzo.  Observer E. Pettarin.  0.61-m f/4.5 reflector + CCD.
C40 Kuban State University Astrophysical Observatory.  Observers A. Ivanov, A.
    Barcov, V. Ivanov, V. Lysenko, N. Yakovenko, N. Ivanova, N. Gorbunov, G.
    Kurbatov, P. Shchukin, V. Roshchupko.  Measurer A. Ivanov.  0.51-m f/8
    reflector + CCD.
C82 Osservatorio Astronomico Nastro Verde, Sorrento.  Observer N. Ruocco.
    0.35-m f/6.3  Schmidt-Cassegrain + CCD.
F51 Pan-STARRS 1, Haleakala.  Observers J. Bulger, K. Chambers, T. Lowe, P.
    Minguez, A. Schultz, I. Smith.  Measurers S. Chastel, J. Fairlamb, M.
    Huber, Y. Ramanjooloo, R. Wainscoat, R. Weryk.  1.8-m Ritchey-Chretien +
    CCD.
G02 KYSUCE Observatory, Kysucke Nove Mesto.  Observer M. Urbanik.  0.40-m
    f/6.8 Corrected Dall-Kirkham + CCD.
G34 Oberfrauendorf.  Observer T. Felber.  0.35-m f/6.3 Schmidt-Cassegrain +
    CCD.
H21 Astronomical Research Observatory, Westfield.  Observer R. Holmes.
    Measurers T. Linder, R. Holmes, L. Horn.  0.76-m f/3.0 astrograph + CCD.
K19 PASTIS Observatory, Banon.  Observer C. Demeautis.  0.28-m f/2.2 reflector
    + CMO.
K83 Beppe Forti Astronomical Observatory, Montelupo.  Observers M. Tombelli,
    A. Mazzanti, M. Lombardo, F. Cheli, G. Interrante, A. Squilloni, M. Iozzi.
    Measurers M. Tombelli, F. Bernardi.  0.40-m f/8 Ritchey-Chretien + CCD.
L01 Visnjan Observatory, Tican.  Observer K. Korlevic.  1.0-m f/2.9 reflector
    + CCD.

Orbital elements:
2023 RE5                                                 Earth MOID = 0.0040 AU
Epoch 2023 Sept. 13.0 TT = JDT 2460200.5                Veres                   
M 338.00613              (2000.0)            P               Q                  
n   0.45595411     Peri.  249.81237     +0.50861876     -0.86077165             
a   1.6718166      Node   169.55027     +0.82459657     +0.48048847             
e   0.5267585      Incl.    6.16286     +0.24768418     +0.16793747             
P   2.16           H   27.36          G   0.15           U   8                  
Residuals in seconds of arc
230905 F51  0.0   0.1-    230911 246  0.2-  0.4-    230911 104  0.5+  0.2-
230910 K19  0.3+  0.5-    230911 246  0.0   0.2-    230911 G34  0.3-  0.9-
230910 K19  0.7-  0.3+    230911 246  0.3-  0.6-    230911 G34  0.2+  0.8-
230910 K19  1.0-  1.1+    230911 246  0.8-  0.2-    230911 C82  0.2+  0.5+
230910 033  0.2+  0.1-    230911 246  0.7-  0.1-    230911 595  0.6-  0.5+
230910 033  0.2+  0.1-    230911 246  0.6-  0.1-    230911 595  0.5-  0.3+
230910 033  0.2+  0.1-    230911 246  0.0   0.4+    230911 C82  0.4-  0.6-
230911 L01  0.4+  0.3+    230911 G02  0.8-  0.4-    230911 595  0.7-  0.0
230911 L01  0.0   0.0     230911 G02  0.8-  0.2-    230911 C40  0.2-  0.1+
230911 L01  0.1-  0.1-    230911 G02  0.5-  0.1-    230911 C40  0.3+  0.3+
230911 L01  0.2+  0.1-    230911 033  0.1+  0.4-    230911 C40  0.0   0.2+
230911 H21  0.1-  0.4+    230911 033  0.2-  0.0     230911 K83  0.1-  0.6-
230911 H21  0.0   0.1+    230911 033  0.0   0.1-    230911 K83  0.2+  0.5-
230911 H21  0.1-  0.1+    230911 033  0.0   0.2-    230911 K83  0.2+  0.7-
230911 H21  0.2-  0.2+    230911 104  0.0   0.4-
230911 246  0.1+  0.1-    230911 G34  0.7+  0.1+

Ephemeris:
2023 RE5                 a,e,i = 1.67, 0.53, 6                   q = 0.7912
Date    TT    R. A. (2000) Decl.     Delta      r    Elong.  Phase     V
2023 08 13    22 28 09.2 +03 39 34   0.2774  1.2722   156.3    18.7    26.1
...
2023 08 28    22 33 06.1 +04 26 16   0.1425  1.1488   165.4    12.8    24.2
...
2023 09 05    22 40 26.1 +04 07 34   0.07679 1.0838   168.3    10.9    22.6
...
2023 09 11    23 07 26.8 +01 56 41   0.02937 1.0361   173.0     6.8    20.3
2023 09 12    23 23 17.4 +00 35 50   0.02171 1.0283   174.8     5.1    19.5
2023 09 13    23 55 55.9 -02 11 30   0.01429 1.0206   171.3     8.6    18.8
...
2023 09 19    09 46 54.6 -08 30 48   0.03468 0.9752    30.8   148.1    28.1
...
2023 09 27    10 13 03.5 -06 28 24   0.09811 0.9190    30.1   146.8    30.0
...
2023 10 12    10 30 49.6 -05 39 07   0.2253  0.8346    38.7   131.5    29.6

M. P. C. Staff               (C) Copyright 2023 MPC           M.P.E.C. 2023-R146





More information about the Iaude mailing list